Back to catalog

THORAD AGENA D DEB

AliveLEO
NORAD 4659·DEBRIS·🇺🇸 United States

Launched Apr 8, 1970 from Vandenberg Space Force Base

Loading…

Next Passes (next 24 hours)

TLE

FreshSource: Space-Track

Epoch: Sep 14, 2026, 06:46 UTC

1 04659U 70025AT  26257.28228370  .00001062  00000-0  84035-3 0  9994
2 04659 100.0972  28.4655 0010198  34.9880 325.1945 13.94126200821082

Track THORAD AGENA D DEB in real time with AllMySat

Download on the App Store